Norfolk NAS, VA

9:30 PM EDT on October 21, 2017 (GMT -0400)
Norfolk Naval Station / Chambers Field

Weather History for KNGU - March, 2013

Change the Weather History Date:

Sunday, March 17, 2013

  Actual Average Record
Temperature  
Mean Temperature 44 °F -  
Max Temperature 46 °F 55 °F 82 °F (2015)
Min Temperature 41 °F 40 °F 28 °F (2017)
Degree Days  
Heating Degree Days 22    
Moisture  
Dew Point 38 °F    
Average Humidity 77    
Maximum Humidity 83    
Minimum Humidity 70    
Precipitation  
Precipitation 0.00 in - - ()
Sea Level Pressure  
Sea Level Pressure 30.10 in    
Wind  
Wind Speed 13 mph (NE)    
Max Wind Speed 18 mph    
Max Gust Speed 24 mph    
Visibility 7 miles    
Events      
Averages and records for this station are not official NWS values.
T = Trace of Precipitation, MM = Missing Value Source: NWS Daily Summary

Daily Weather History Graph

Daily Weather History Graph

Search for Another Location

Airport or City:

Trip Planner

Search our weather history database for the weather conditions in past years. The results will help you decide how hot, cold, wet, or windy it might be!

Date:

Astronomy

Mar. 17, 2013 Rise Set
Actual Time 7:12 AM EDT 7:14 PM EDT
Civil Twilight 6:46 AM EDT 7:40 PM EDT
Nautical Twilight 6:16 AM EDT 8:10 PM EDT
Astronomical Twilight 5:46 AM EDT 8:41 PM EDT
Moon 10:31 AM EDT (3/17) 12:12 AM EDT (3/17)
Length of Visible Light 12h 53m
Length of Day
12h 01m
Waxing Crescent, 31% of the Moon is Illuminated
Mar 17
Waxing Crescent
Mar 19
First Quarter
Mar 27
Full
Apr 3
Last Quarter
Apr 10
New

Hourly Weather History & Observations

Time (EDT) Temp. Windchill Dew Point Humidity Pressure Visibility Wind Dir Wind Speed Gust Speed Precip Events Conditions
1:24 AM 46.4 °F 39.8 °F 41.0 °F 81% 29.91 in 6.0 mi North 16.1 mph 24.2 mph N/A   Mostly Cloudy
1:59 AM 46.0 °F 38.8 °F 41.0 °F 83% 29.92 in 6.0 mi NNE 18.4 mph - N/A   Mostly Cloudy
2:59 AM 46.0 °F 39.3 °F 39.9 °F 79% 29.94 in 10.0 mi NNE 16.1 mph - N/A   Overcast
3:59 AM 46.0 °F 40.2 °F 39.9 °F 79% 29.94 in 7.0 mi NNE 12.7 mph - N/A   Overcast
4:59 AM 46.9 °F - 42.1 °F 83% 29.98 in 10.0 mi NE 5.8 mph - N/A   Scattered Clouds
5:36 AM 46.4 °F 42.4 °F 41.0 °F 81% 30.01 in 7.0 mi East 8.1 mph - N/A   Overcast
5:59 AM 46.0 °F 42.5 °F 41.0 °F 83% 30.01 in 5.0 mi East 6.9 mph - N/A   Overcast
6:59 AM 45.0 °F 39.3 °F 39.9 °F 82% 30.02 in 5.0 mi ENE 11.5 mph - N/A   Overcast
7:59 AM 45.0 °F 40.1 °F 39.9 °F 82% 30.06 in 5.0 mi NE 9.2 mph - N/A   Mist
8:33 AM 45.0 °F 40.1 °F 39.9 °F 82% 30.06 in 5.0 mi NE 9.2 mph - N/A   Overcast
8:59 AM 45.0 °F 40.1 °F 39.9 °F 82% 30.09 in 5.0 mi NE 9.2 mph - N/A   Overcast
9:59 AM 45.0 °F 38.5 °F 39.9 °F 82% 30.09 in 4.0 mi NE 13.8 mph - 0.00 in   Overcast
10:59 AM 46.4 °F 39.8 °F 37.4 °F 71% 30.12 in 4.0 mi NNE 16.1 mph - N/A   Overcast
11:59 AM 45.0 °F 38.5 °F 37.9 °F 76% 30.16 in 4.0 mi North 13.8 mph - N/A   Overcast
12:59 PM 44.6 °F 39.7 °F 37.4 °F 76% 30.17 in 4.0 mi NNE 9.2 mph - N/A   Overcast
1:59 PM 44.1 °F 37.1 °F 36.0 °F 73% 30.17 in 6.0 mi North 15.0 mph - N/A   Overcast
2:59 PM 44.1 °F 37.1 °F 35.1 °F 71% 30.14 in 6.0 mi NNE 15.0 mph - N/A   Overcast
3:59 PM 44.1 °F 38.6 °F 35.1 °F 71% 30.15 in 6.0 mi NE 10.4 mph - N/A   Overcast
4:59 PM 43.0 °F 36.8 °F 35.1 °F 74% 30.16 in 6.0 mi ENE 11.5 mph - N/A   Overcast
6:59 PM 42.1 °F 35.7 °F 34.0 °F 73% 30.21 in 10.0 mi ENE 11.5 mph - N/A   Overcast
8:59 PM 42.1 °F 36.1 °F 34.0 °F 73% 30.25 in 10.0 mi ENE 10.4 mph - N/A   Overcast
9:59 PM 42.1 °F 34.5 °F 33.1 °F 70% 30.23 in 10.0 mi ENE 15.0 mph - N/A   Overcast
10:59 PM 41.0 °F 32.5 °F 33.1 °F 73% 30.26 in 10.0 mi ENE 17.3 mph - N/A   Overcast
11:59 PM 42.1 °F 36.1 °F 33.1 °F 70% 30.27 in 10.0 mi ENE 10.4 mph - N/A   Overcast